Flag for U.S.A. Weather past 2 weeks in Aliso Viejo, California, U.S.A.

Now
76 °F

Scattered clouds.


Feels Like: 78 °F
Forecast: 70 / 83 °F
Wind: 6 mph from Southwest

Location: John Wayne Airport-Orange County Airport

Current Time: Aug 1, 2014 at 8:00:47 PM

Latest Report: Aug 1, 2014 at 6:53 PM


Visibility: 10 mi

Pressure: 29.85 "Hg

Humidity: 64%

Dew point: 63 °F

Location of Aliso ViejoLocation

Historic Weather in Aliso Viejo — Graph

°F

Aliso Viejo temperature yesterday

Maximum temperature yesterday: 85 °F (at 12:53 PM)
Minimum temperature yesterday: 70 °F (at 5:53 AM)
Average temperature yesterday: 76 °F

Past Weeks' High & Low Weather Summary

 TemperatureHumidityPressure
High91 °F (Jul 28, 12:53 PM)87% (Jul 26, 6:53 AM)30.06 "Hg (Jul 26, 6:53 AM)
Low68 °F (Jul 18, 5:53 AM)22% (Jul 28, 1:53 PM)29.72 "Hg (Jul 24, 5:53 PM)
Average75 °F63%29.95 "Hg
* Reported Jul 17 6:53 PM — Aug 1 6:53 PM, Aliso Viejo, Weather by CustomWeather, © 2014

Note: Actual official high and low records may vary slightly from our data, if they occured in-between our weather recording intervals... More about our weather records

Advertising

Aliso Viejo weather history for previous 24 hours

 ConditionsComfort  
Time TempWeatherWind HumidityBarometerVisibility
6:53 PM
Aug 1
76 °FScattered clouds.6 mph64%29.85 "Hg10 mi
5:53 PM77 °FScattered clouds.13 mph62%29.85 "Hg10 mi
4:53 PM78 °FScattered clouds.14 mph62%29.87 "Hg10 mi
3:53 PM79 °FScattered clouds.15 mph58%29.88 "Hg10 mi
2:53 PM79 °FScattered clouds.13 mph58%29.88 "Hg10 mi
1:53 PM80 °FScattered clouds.13 mph56%29.89 "Hg10 mi
12:53 PM79 °FScattered clouds.13 mph60%29.90 "Hg10 mi
11:53 AM80 °FScattered clouds.10 mph58%29.91 "Hg10 mi
10:53 AM79 °FScattered clouds.10 mph60%29.91 "Hg10 mi
9:53 AM79 °FPassing clouds.3 mph58%29.91 "Hg10 mi
8:53 AM76 °FPassing clouds.3 mph62%29.92 "Hg10 mi
7:53 AM74 °FScattered clouds.3 mph67%29.92 "Hg10 mi
6:53 AM73 °FPassing clouds.3 mph69%29.90 "Hg8 mi
5:53 AM72 °FOvercast.3 mph71%29.90 "Hg10 mi
4:53 AM72 °FOvercast.5 mph71%29.90 "Hg10 mi
3:53 AM72 °FOvercast.5 mph71%29.90 "Hg10 mi
2:53 AM72 °FOvercast.6 mph73%29.90 "Hg10 mi
1:53 AM72 °FOvercast.5 mph73%29.90 "Hg10 mi
12:53 AM72 °FOvercast.3 mph76%29.91 "Hg10 mi
11:53 PM
Jul 31
71 °FLow clouds.5 mph78%29.92 "Hg10 mi
11:01 PM72 °FPassing clouds.7 mph78%29.92 "Hg10 mi
9:53 PM73 °FPassing clouds.7 mph74%29.90 "Hg10 mi
8:53 PM74 °FPassing clouds.5 mph69%29.88 "Hg10 mi
Weather by CustomWeather, © 2014

See weather overviewHow to use our weather pages